Regional Weather Roundup
Issued by NWS Charleston, WV

Home | Current Version | Previous Version | Text Only | Print | Product List | Glossary Off
Versions: 1 2 3 4 5 6 7 8 9 10 11 12 13 14 15 16 17 18 19 20 21 22 23 24 25 26 27 28 29 30 31 32 33 34 35 36 37 38 39 40 41 42 43 44 45 46 47 48 49 50

000
ASUS41 KRLX 180210
RWRRLX
West Virginia Regional Weather Roundup
National Weather Service Charleston WV
900 PM EST WED DEC 17 2014

Note: "fair" indicates few or no clouds below 12,000 feet with no
significant weather and/or obstructions to visibility.

WVZ003-180300-
Northern Panhandle of West Virginia

CITY           SKY/WX    TMP DP  RH WIND       PRES   REMARKS
WHEELING       CLOUDY    30  21  69 W16       30.12S
$$

WVZ009-180300-
Northwest West Virginia

CITY           SKY/WX    TMP DP  RH WIND       PRES   REMARKS
PARKERSBURG    CLOUDY    32  24  72 W8G18     30.22S
$$

WVZ006-180300-
Western West Virginia

CITY           SKY/WX    TMP DP  RH WIND       PRES   REMARKS
HUNTINGTON     CLOUDY    32  24  72 W10       30.22R
$$

WVZ015-180300-
West Central West Virginia

CITY           SKY/WX    TMP DP  RH WIND       PRES   REMARKS
CHARLESTON     CLOUDY    34  25  69 W9        30.20R
$$

WVZ022-031-180300-
North Central West Virginia

CITY           SKY/WX    TMP DP  RH WIND       PRES   REMARKS
CLARKSBURG     CLOUDY    32  24  72 W8        30.14S
MORGANTOWN     CLOUDY    31  20  63 W9G16     30.13S
$$

WVZ025-035-042-045-180300-
Southern West Virginia

CITY           SKY/WX    TMP DP  RH WIND       PRES   REMARKS
BECKLEY        CLOUDY    31  25  78 NW8       30.12R
LOGAN          CLOUDY    32  27  80 NW6       30.18S
BLUEFIELD      PTCLDY    32  26  78 W9        30.10F
LEWISBURG      MOCLDY    34  26  73 W8        30.09F
$$

WVZ047-180300-
Northern Mountains of West Virginia

CITY           SKY/WX    TMP DP  RH WIND       PRES   REMARKS
ELKINS         CLOUDY    31  26  82 VRB6      30.10S
$$

WVZ052-180300-
Eastern Panhandle of West Virginia

CITY           SKY/WX    TMP DP  RH WIND       PRES   REMARKS
MARTINSBURG    CLOUDY    38  21  50 W14       30.08R
PETERSBURG     PTCLDY    37  22  54 W18G36    30.08F
$$


USA.gov is the U.S. government's official web portal to all federal, state and local government web resources and services.